This is the latest recevied weather packets stored in our database for station/object KC8PTQ. If no packets are shown the sender has not sent any weather packets the latest 10 day(s).
| Time | Temp. | Humidity | Pressure | Rain* | Wind** | Luminosity | Snow |
|---|---|---|---|---|---|---|---|
| 1778177117 | 13.33° C | 48% | 1013.9 hPa | 0 mm | - | 453 W/m² | - |
| 1778176814 | 13.89° C | 47% | 1013.8 hPa | 0 mm | - | 159 W/m² | - |
| 1778176510 | 13.33° C | 48% | 1013.8 hPa | 0 mm | - | 462 W/m² | - |
| 1778176208 | 13.89° C | 47% | 1014 hPa | 0 mm | - | 157 W/m² | - |
| 1778175905 | 12.78° C | 48% | 1014 hPa | 0 mm | - | 269 W/m² | - |
| 1778175602 | 12.78° C | 50% | 1013.8 hPa | 0 mm | - | 155 W/m² | - |
| 1778175299 | 12.78° C | 49% | 1014 hPa | 0 mm | - | 154 W/m² | - |
| 1778174996 | 13.33° C | 46% | 1014.1 hPa | 0 mm | - | 333 W/m² | - |
| 1778174692 | 13.89° C | 47% | 1014.1 hPa | 0 mm | - | 135 W/m² | - |
| 1778174389 | 13.89° C | 46% | 1013.9 hPa | 0 mm | - | 263 W/m² | - |
| 1778174084 | 13.33° C | 48% | 1014 hPa | 0 mm | - | 424 W/m² | - |
| 1778173782 | 13.33° C | 48% | 1014 hPa | 0 mm | - | 335 W/m² | - |
| 1778173478 | 13.33° C | 48% | 1014 hPa | 0 mm | - | 240 W/m² | - |
| 1778173175 | 12.22° C | 49% | 1014 hPa | 0 mm | - | 435 W/m² | - |
| 1778172871 | 13.33° C | 49% | 1014 hPa | 0 mm | - | 485 W/m² | - |
| 1778172567 | 12.78° C | 51% | 1014 hPa | 0 mm | - | 204 W/m² | - |
| 1778172264 | 12.22° C | 51% | 1014 hPa | 0 mm | - | 564 W/m² | - |
| 1778171961 | 12.78° C | 51% | 1013.9 hPa | 0 mm | - | 680 W/m² | - |
| 1778171659 | 12.78° C | 50% | 1014.1 hPa | 0 mm | - | 226 W/m² | - |
| 1778171355 | 12.22° C | 52% | 1013.8 hPa | 0 mm | - | 315 W/m² | - |
| 1778171050 | 12.22° C | 55% | 1014 hPa | 0 mm | - | 600 W/m² | - |
| 1778170748 | 12.78° C | 47% | 1014.2 hPa | 0 mm | - | 317 W/m² | - |
| 1778170444 | 12.78° C | 52% | 1014 hPa | 0 mm | - | 317 W/m² | - |
| 1778170141 | 12.78° C | 47% | 1014.1 hPa | 0 mm | - | 125 W/m² | - |
| 1778169836 | 12.22° C | 48% | 1013.9 hPa | 0 mm | - | 564 W/m² | - |
* Rain latest hour (hover to see other rain measurements)
** Current wind speed in m/s (hover to see current wind gust speed)